Weather History for Tarboro, NC

Change the Weather History Date:

Tuesday, February 19, 2013

  Actual Average Record
Temperature  
Mean Temperature 44 °F -  
Max Temperature 58 °F 56 °F 75 °F (1956)
Min Temperature 29 °F 33 °F 15 °F (1979)
Degree Days  
Heating Degree Days 22    
Moisture  
Dew Point 40 °F    
Average Humidity 79    
Maximum Humidity 94    
Minimum Humidity 58    
Precipitation  
Precipitation 0.03 in - - ()
Sea Level Pressure  
Sea Level Pressure 30.03 in    
Wind  
Wind Speed 6 mph (SSW)    
Max Wind Speed 15 mph    
Max Gust Speed 32 mph    
Visibility 10 miles    
Events Rain    
Averages and records for this station are not official NWS values.
T = Trace of Precipitation, MM = Missing Value Source: NWS Daily Summary

Daily Weather History Graph

Daily Weather History Graph

Search for Another Location

Airport:

Trip Planner

Search our weather history database for the weather conditions in past years. The results will help you decide how hot, cold, wet, or windy it might be!

Date:

Astronomy

Feb. 19, 2013 Rise Set
Actual Time 6:52 AM EST 5:55 PM EST
Civil Twilight 6:26 AM EST 6:21 PM EST
Nautical Twilight 5:56 AM EST 6:51 PM EST
Astronomical Twilight 5:26 AM EST 7:21 PM EST
Moon 12:31 PM EST (2/19) 2:16 AM EST (2/19)
Length of Visible Light 11h 55m
Length of Day
11h 03m
Waxing Gibbous, 67% of the Moon is Illuminated
Feb 19
Waxing Gibbous
Feb 25
Full
Mar 4
Last Quarter
Mar 11
New
Mar 19
First Quarter

Hourly Weather History & Observations

Time (EST) Temp. Windchill Dew Point Humidity Pressure Visibility Wind Dir Wind Speed Gust Speed Precip Events Conditions
12:15 AM 34.9 °F 32.0 °F 27.9 °F 76% 30.29 in 10.0 mi South 3.5 mph - N/A   Clear
12:35 AM 33.4 °F 30.4 °F 28.8 °F 83% 30.29 in 10.0 mi South 3.5 mph - N/A   Clear
12:55 AM 34.5 °F 31.6 °F 26.2 °F 72% 30.27 in 10.0 mi SSE 3.5 mph - N/A   Clear
1:35 AM 34.3 °F 31.4 °F 26.2 °F 72% 30.26 in 10.0 mi SSE 3.5 mph - N/A   Clear
2:15 AM 31.3 °F 26.6 °F 27.3 °F 85% 30.23 in 10.0 mi SSE 4.6 mph - N/A   Clear
2:35 AM 31.6 °F - 27.1 °F 83% 30.23 in 10.0 mi Calm Calm - N/A   Clear
2:55 AM 32.0 °F 28.7 °F 26.8 °F 81% 30.23 in 10.0 mi South 3.5 mph - N/A   Clear
3:15 AM 31.6 °F - 26.6 °F 82% 30.23 in 10.0 mi Calm Calm - N/A   Scattered Clouds
3:35 AM 32.0 °F - 27.0 °F 82% 30.21 in 10.0 mi Calm Calm - N/A   Overcast
3:55 AM 32.0 °F - 27.0 °F 82% 30.20 in 10.0 mi Calm Calm - N/A   Overcast
4:35 AM 32.0 °F - 27.7 °F 84% 30.18 in 10.0 mi Calm Calm - N/A   Mostly Cloudy
4:55 AM 31.8 °F - 27.7 °F 85% 30.17 in 10.0 mi Calm Calm - N/A   Mostly Cloudy
5:15 AM 32.0 °F - 27.7 °F 84% 30.17 in 10.0 mi Calm Calm - N/A   Scattered Clouds
5:35 AM 30.9 °F - 27.9 °F 88% 30.17 in 10.0 mi Calm Calm - N/A   Scattered Clouds
5:55 AM 31.1 °F - 28.9 °F 92% 30.15 in 10.0 mi Calm Calm - N/A   Scattered Clouds
6:15 AM 30.6 °F - 28.0 °F 90% 30.15 in 10.0 mi Calm Calm - N/A   Clear
6:35 AM 29.8 °F - 27.7 °F 92% 30.15 in 10.0 mi Calm Calm - N/A   Clear
7:35 AM 31.8 °F - 30.2 °F 94% 30.14 in 10.0 mi Calm Calm - N/A   Clear
7:55 AM 34.5 °F 31.6 °F 31.6 °F 89% 30.13 in 10.0 mi South 3.5 mph - N/A   Mostly Cloudy
8:15 AM 39.0 °F 35.7 °F 33.8 °F 82% 30.13 in 10.0 mi South 4.6 mph - N/A   Overcast
8:35 AM 41.0 °F 37.1 °F 34.9 °F 79% 30.13 in 10.0 mi South 5.8 mph - N/A   Mostly Cloudy
8:55 AM 42.8 °F 38.6 °F 36.0 °F 77% 30.12 in 10.0 mi South 6.9 mph - N/A   Mostly Cloudy
9:15 AM 44.6 °F 40.7 °F 37.2 °F 75% 30.10 in 10.0 mi South 6.9 mph - N/A   Scattered Clouds
9:55 AM 48.7 °F - 39.7 °F 71% 30.08 in 10.0 mi SSE 5.8 mph - N/A   Scattered Clouds
10:15 AM 50.7 °F - 40.8 °F 69% 30.08 in 10.0 mi South 6.9 mph - N/A   Mostly Cloudy
10:35 AM 53.1 °F - 41.9 °F 66% 30.07 in 10.0 mi South 8.1 mph - N/A   Overcast
10:55 AM 55.6 °F - 42.8 °F 62% 30.06 in 10.0 mi South 8.1 mph 19.6 mph N/A   Mostly Cloudy
11:15 AM 57.4 °F - 43.2 °F 59% 30.04 in 10.0 mi South 10.4 mph 17.3 mph N/A   Mostly Cloudy
11:35 AM 58.3 °F - 43.5 °F 58% 30.02 in 10.0 mi South 10.4 mph - N/A   Mostly Cloudy
11:55 AM 58.8 °F - 43.9 °F 58% 30.01 in 10.0 mi South 9.2 mph 17.3 mph N/A   Overcast
12:15 PM 57.0 °F - 45.5 °F 65% 30.00 in 10.0 mi South 10.4 mph - N/A Rain Light Rain
12:35 PM 54.9 °F - 47.8 °F 77% 30.00 in 10.0 mi SSW 6.9 mph - 0.02 in Rain Light Rain
12:55 PM 54.3 °F - 48.7 °F 81% 29.99 in 10.0 mi SSW 12.7 mph 18.4 mph 0.02 in Rain Light Rain
1:15 PM 55.0 °F - 48.9 °F 80% 29.97 in 10.0 mi SSW 11.5 mph 21.9 mph 0.01 in Rain Light Rain
1:35 PM 55.4 °F - 49.1 °F 79% 29.95 in 10.0 mi SSW 12.7 mph 17.3 mph 0.01 in   Light Drizzle
1:55 PM 55.6 °F - 49.1 °F 79% 29.93 in 10.0 mi SSW 11.5 mph 19.6 mph 0.01 in   Light Drizzle
2:15 PM 56.1 °F - 48.9 °F 77% 29.91 in 10.0 mi SW 8.1 mph - N/A   Overcast
2:35 PM 56.3 °F - 48.9 °F 76% 29.90 in 10.0 mi SSW 9.2 mph 17.3 mph N/A   Overcast
2:55 PM 56.5 °F - 48.6 °F 75% 29.89 in 10.0 mi SSW 12.7 mph 20.7 mph N/A   Overcast
3:15 PM 56.7 °F - 48.0 °F 73% 29.88 in 10.0 mi SW 12.7 mph 23.0 mph N/A   Overcast
3:35 PM 57.0 °F - 47.7 °F 71% 29.87 in 10.0 mi SSW 12.7 mph 21.9 mph N/A   Overcast
3:55 PM 57.2 °F - 47.1 °F 69% 29.87 in 10.0 mi SSW 15.0 mph 23.0 mph N/A   Overcast
4:15 PM 57.0 °F - 46.9 °F 69% 29.87 in 10.0 mi SW 15.0 mph 32.2 mph N/A   Overcast
4:35 PM 56.3 °F - 47.8 °F 73% 29.86 in 10.0 mi SSW 13.8 mph 23.0 mph N/A   Overcast
4:55 PM 55.6 °F - 48.6 °F 77% 29.85 in 10.0 mi SSW 15.0 mph 23.0 mph N/A   Overcast
5:15 PM 55.4 °F - 49.3 °F 80% 29.85 in 10.0 mi SSW 11.5 mph 19.6 mph N/A   Overcast
5:35 PM 54.9 °F - 49.8 °F 83% 29.86 in 10.0 mi SW 11.5 mph 21.9 mph N/A   Overcast
5:55 PM 54.1 °F - 50.5 °F 88% 29.86 in 3.0 mi SW 9.2 mph - N/A   Drizzle
6:15 PM 53.8 °F - 50.9 °F 90% 29.87 in 10.0 mi SW 12.7 mph 19.6 mph N/A   Overcast
7:35 PM 53.4 °F - 49.3 °F 86% 29.90 in 10.0 mi West 12.7 mph 18.4 mph N/A   Overcast
7:55 PM 52.9 °F - 48.2 °F 84% 29.90 in 10.0 mi West 11.5 mph - N/A   Overcast
8:15 PM 51.8 °F - 47.1 °F 84% 29.91 in 10.0 mi West 11.5 mph - N/A   Scattered Clouds
8:35 PM 51.1 °F - 45.5 °F 81% 29.92 in 10.0 mi West 9.2 mph - N/A   Scattered Clouds
8:55 PM 50.0 °F - 44.1 °F 80% 29.92 in 10.0 mi West 8.1 mph - N/A   Scattered Clouds
9:15 PM 48.7 °F - 43.3 °F 82% 29.93 in 10.0 mi WSW 8.1 mph - N/A   Clear
9:35 PM 48.6 °F - 43.2 °F 82% 29.94 in 10.0 mi WSW 8.1 mph - N/A   Clear
9:55 PM 48.2 °F - 42.6 °F 81% 29.94 in 10.0 mi WSW 10.4 mph - N/A   Clear
10:15 PM 47.8 °F - 42.4 °F 82% 29.94 in 10.0 mi WSW 9.2 mph - N/A   Clear
10:35 PM 47.3 °F - 42.1 °F 82% 29.94 in 10.0 mi WSW 8.1 mph - N/A   Clear
10:55 PM 46.9 °F - 42.1 °F 83% 29.94 in 10.0 mi WSW 6.9 mph - N/A   Clear
11:15 PM 45.9 °F 41.2 °F 41.5 °F 85% 29.94 in 10.0 mi West 9.2 mph - N/A   Clear
11:35 PM 45.1 °F 41.4 °F 41.0 °F 85% 29.94 in 10.0 mi WSW 6.9 mph - N/A   Clear
11:55 PM 44.6 °F 41.4 °F 40.8 °F 87% 29.94 in 10.0 mi West 5.8 mph - N/A   Clear